Погода в Трехбалтаеве

Россия / Чувашская Республика     54°55′24″N   47°40′23″E
темп.,
°C
ветер,
м/с
пор.,
м/с
влажн.,
%
обл.,
%
осадки,
мм/ч
давл.,
гПа
погр.,
м
15 апреля, чт
чт1500:00+11ююв34845 0.0 102252
03:00+9ююв33860 0.0 102224
06:00+9ююв34840 0.0 102154
09:00+14юв34660 0.0 1020273
12:00+18ююв23500 0.0 1019799
15:00+19ю23385 0.0 10191799
18:00+17вюв224954 0.0 101817
21:00+13вюв22630 0.0 101910
16 апреля, пт
пт1600:00+11св226714 0.0 101910
03:00+8ссв489013 0.0 1021142
06:00+8св6994100 0.0 1022362
09:00+9всв6985100 0.0 1023581
12:00+12всв677274 0.0 1023752
15:00+14всв676136 0.0 10231010
18:00+12всв696822 0.0 1024646
21:00+8св512685 0.0 1025358
17 апреля, сб
сб1700:00+6св410725 0.0 1025285
03:00+5св4107527 0.0 1026243
06:00+4всв4107583 0.0 1027289
09:00+7всв5960100 0.0 1027502
12:00+11всв68436 0.0 1026937
15:00+13в67355 0.0 10251140
18:00+11в58410 0.0 1025332
21:00+7всв39560 0.0 1025177
18 апреля, вс
вс1800:00+5всв49690 0.0 1025184
03:00+3св39740 0.0 1025174
06:00+3всв310730 0.0 1025255
09:00+8всв68530 0.0 1024720
12:00+12всв67400 0.0 10231354
15:00+13всв673721 0.0 10231774
18:00+11св794945 0.0 10231014
21:00+6всв71371100 0.0 1025688
19 апреля, пн
пн1900:00+5всв71254100 0.0 1026658
03:00+3всв71152100 0.0 1027628
06:00+1всв71264100 0.0 1028654
09:00+3всв9124671 0.0 1029947
12:00+6всв911362 0.0 10301442
15:00+6всв910310 0.0 10301660
18:00+5всв810340 0.0 10311298
21:00+3всв713410 0.0 1032581